Weather History for Marfa, TX

Change the Weather History Date:

Friday, May 23, 2014

  Actual Average Record
Temperature  
Mean Temperature 68 °F -  
Max Temperature 82 °F 84 °F 95 °F (2005)
Min Temperature 55 °F 52 °F 42 °F (2011)
Cooling Degree Days 4    
Growing Degree Days 18 (Base 50)    
Moisture  
Dew Point 54 °F    
Average Humidity 63    
Maximum Humidity 100    
Minimum Humidity 30    
Precipitation  
Precipitation 0.46 in - - ()
Sea Level Pressure  
Sea Level Pressure 30.09 in    
Wind  
Wind Speed 5 mph (ENE)    
Max Wind Speed 21 mph    
Max Gust Speed 25 mph    
Visibility 10 miles    
Events Thunderstorm    
Averages and records for this station are not official NWS values.
T = Trace of Precipitation, MM = Missing Value Source: NWS Daily Summary

Daily Weather History Graph

Daily Weather History Graph

Search for Another Location

Airport:

Trip Planner

Search our weather history database for the weather conditions in past years. The results will help you decide how hot, cold, wet, or windy it might be!

Date:

Astronomy

May. 23, 2014 Rise Set
Actual Time 6:57 AM CDT 8:48 PM CDT
Civil Twilight 6:30 AM CDT 9:15 PM CDT
Nautical Twilight 5:58 AM CDT 9:47 PM CDT
Astronomical Twilight 5:24 AM CDT 10:21 PM CDT
Moon 3:30 AM CDT (5/23) 4:04 PM CDT (5/23)
Length of Visible Light 14h 44m
Length of Day
13h 50m
Waning Crescent, 27% of the Moon is Illuminated
May 23
Waning Crescent
May 28
New
Jun 5
First Quarter
Jun 12
Full
Jun 19
Last Quarter

Hourly Weather History & Observations

Time (CDT) Temp. Dew Point Humidity Pressure Visibility Wind Dir Wind Speed Gust Speed Precip Events Conditions
12:15 AM 62.6 °F 53.6 °F 72% 30.15 in 10.0 mi Calm Calm - N/A   Clear
12:35 AM 62.6 °F 53.6 °F 72% 30.15 in 10.0 mi NE 4.6 mph - N/A   Clear
12:55 AM 62.6 °F 55.4 °F 77% 30.14 in 10.0 mi NE 6.9 mph - N/A   Clear
1:15 AM 62.6 °F 55.4 °F 77% 30.14 in 10.0 mi NNE 5.8 mph - N/A   Partly Cloudy
1:35 AM 62.6 °F 55.4 °F 77% 30.14 in 10.0 mi WNW 4.6 mph - N/A   Mostly Cloudy
1:55 AM 60.8 °F 55.4 °F 82% 30.14 in 10.0 mi NNW 6.9 mph - N/A   Overcast
2:15 AM 60.8 °F 55.4 °F 82% 30.14 in 10.0 mi NW 3.5 mph - N/A   Overcast
2:35 AM 60.8 °F 55.4 °F 82% 30.14 in 10.0 mi North 3.5 mph - N/A   Overcast
2:55 AM 60.8 °F 57.2 °F 88% 30.14 in 10.0 mi Calm Calm - N/A   Mostly Cloudy
3:15 AM 60.8 °F 57.2 °F 88% 30.13 in 10.0 mi Calm Calm - N/A   Partly Cloudy
3:55 AM 60.8 °F 57.2 °F 88% 30.10 in 10.0 mi Calm Calm - N/A   Clear
4:15 AM 60.8 °F 57.2 °F 88% 30.11 in 10.0 mi Calm Calm - N/A   Clear
4:35 AM 60.8 °F 57.2 °F 88% 30.10 in 10.0 mi East 3.5 mph - N/A   Partly Cloudy
4:55 AM 59.0 °F 57.2 °F 94% 30.10 in 10.0 mi Calm Calm - N/A   Partly Cloudy
5:15 AM 57.2 °F 57.2 °F 100% 30.10 in 10.0 mi Calm Calm - N/A   Clear
5:35 AM 57.2 °F 55.4 °F 94% 30.10 in 10.0 mi Calm Calm - N/A   Scattered Clouds
5:55 AM 57.2 °F 55.4 °F 94% 30.11 in 10.0 mi Calm Calm - N/A   Mostly Cloudy
6:15 AM 55.4 °F 55.4 °F 100% 30.11 in 10.0 mi NW 5.8 mph - N/A   Partly Cloudy
6:35 AM 57.2 °F 55.4 °F 94% 30.11 in 10.0 mi WNW 4.6 mph - N/A   Partly Cloudy
6:55 AM 55.4 °F 55.4 °F 100% 30.11 in 10.0 mi Calm Calm - N/A   Clear
7:15 AM 55.4 °F 53.6 °F 94% 30.12 in 8.0 mi East 5.8 mph - N/A   Clear
7:35 AM 55.4 °F 55.4 °F 100% 30.13 in 9.0 mi Calm Calm - N/A   Clear
7:55 AM 57.2 °F 55.4 °F 94% 30.13 in 10.0 mi ENE 4.6 mph - N/A   Clear
8:15 AM 60.8 °F 57.2 °F 88% 30.13 in 10.0 mi NE 5.8 mph - N/A   Clear
8:35 AM 62.6 °F 57.2 °F 82% 30.13 in 10.0 mi East 5.8 mph - N/A   Clear
8:55 AM 64.4 °F 57.2 °F 77% 30.13 in 10.0 mi SE 8.1 mph - N/A   Clear
9:15 AM 66.2 °F 55.4 °F 68% 30.14 in 10.0 mi SSE 6.9 mph - N/A   Clear
9:35 AM 66.2 °F 55.4 °F 68% 30.14 in 10.0 mi South 5.8 mph - N/A   Clear
9:55 AM 68.0 °F 55.4 °F 64% 30.15 in 10.0 mi SSW 5.8 mph - N/A   Partly Cloudy
10:15 AM 69.8 °F 55.4 °F 60% 30.15 in 10.0 mi South 6.9 mph - N/A   Clear
10:35 AM - - N/A% 30.14 in - SW 5.8 mph - N/A   Unknown
10:55 AM 71.6 °F 53.6 °F 53% 30.14 in 10.0 mi SW 3.5 mph - N/A   Clear
11:35 AM 73.4 °F 51.8 °F 47% 30.14 in 10.0 mi Calm Calm - N/A   Clear
11:55 AM 73.4 °F 51.8 °F 47% 30.14 in 10.0 mi NE 4.6 mph - N/A   Clear
12:15 PM 75.2 °F 51.8 °F 44% 30.13 in 10.0 mi SE 3.5 mph - N/A   Clear
12:35 PM 77.0 °F 51.8 °F 41% 30.13 in 10.0 mi WSW 3.5 mph - N/A   Clear
12:55 PM 78.8 °F 50.0 °F 36% 30.12 in 10.0 mi SE 6.9 mph - N/A   Clear
1:15 PM 78.8 °F 48.2 °F 34% 30.11 in 10.0 mi South 9.2 mph - N/A   Clear
1:55 PM 78.8 °F 48.2 °F 34% 30.10 in 10.0 mi East 4.6 mph - N/A   Scattered Clouds
2:15 PM 78.8 °F 48.2 °F 34% 30.09 in 10.0 mi SSE 8.1 mph - N/A   Partly Cloudy
2:35 PM 80.6 °F 48.2 °F 32% 30.08 in 10.0 mi South 6.9 mph - N/A   Scattered Clouds
2:55 PM 82.4 °F 48.2 °F 30% 30.07 in 10.0 mi ESE 16.1 mph 24.2 mph N/A   Mostly Cloudy
3:15 PM 80.6 °F 46.4 °F 30% 30.07 in 10.0 mi SSE 8.1 mph 16.1 mph N/A   Mostly Cloudy
3:35 PM 80.6 °F 46.4 °F 30% 30.06 in 10.0 mi SE 11.5 mph 18.4 mph N/A   Overcast
3:55 PM 80.6 °F 46.4 °F 30% 30.05 in 10.0 mi SE 10.4 mph - N/A   Overcast
4:15 PM 80.6 °F 46.4 °F 30% 30.04 in 10.0 mi SSE 4.6 mph - N/A Thunderstorm Thunderstorm
4:35 PM 80.6 °F 46.4 °F 30% 30.03 in 10.0 mi South 11.5 mph 16.1 mph N/A   Mostly Cloudy
4:55 PM 78.8 °F 51.8 °F 39% 30.03 in 10.0 mi ENE 8.1 mph - N/A   Mostly Cloudy
5:15 PM 77.0 °F 55.4 °F 47% 30.02 in 10.0 mi NNE 16.1 mph 21.9 mph N/A   Mostly Cloudy
5:35 PM 77.0 °F 55.4 °F 47% 30.02 in 10.0 mi NNE 10.4 mph - N/A   Overcast
5:55 PM 78.8 °F 55.4 °F 44% 30.01 in 10.0 mi NNE 15.0 mph 25.3 mph N/A   Mostly Cloudy
6:15 PM 77.0 °F 55.4 °F 47% 30.00 in 10.0 mi NNE 18.4 mph 23.0 mph N/A   Mostly Cloudy
6:35 PM 75.2 °F 53.6 °F 47% 30.00 in 10.0 mi NE 20.7 mph 25.3 mph N/A   Mostly Cloudy
6:55 PM 77.0 °F 53.6 °F 44% 30.00 in 10.0 mi NE 17.3 mph 23.0 mph N/A   Mostly Cloudy
7:15 PM 75.2 °F 50.0 °F 41% 30.01 in 10.0 mi NE 17.3 mph - N/A   Mostly Cloudy
7:35 PM 77.0 °F 51.8 °F 41% 30.01 in 10.0 mi ENE 17.3 mph - N/A   Mostly Cloudy
7:55 PM 77.0 °F 51.8 °F 41% 30.01 in 10.0 mi ENE 13.8 mph 19.6 mph N/A   Partly Cloudy
8:15 PM 75.2 °F 51.8 °F 44% 30.01 in 10.0 mi ENE 12.7 mph - N/A   Clear
8:35 PM 75.2 °F 51.8 °F 44% 30.02 in 10.0 mi NE 9.2 mph - N/A Thunderstorm Scattered Clouds
8:55 PM 73.4 °F 53.6 °F 50% 30.02 in 10.0 mi NNE 10.4 mph - N/A   Mostly Cloudy
9:15 PM 71.6 °F 53.6 °F 53% 30.03 in 10.0 mi NE 12.7 mph - N/A   Scattered Clouds
9:35 PM 71.6 °F 53.6 °F 53% 30.03 in 10.0 mi ENE 10.4 mph - N/A   Mostly Cloudy
9:55 PM 69.8 °F 55.4 °F 60% 30.03 in 10.0 mi NE 6.9 mph - N/A   Mostly Cloudy
10:15 PM 66.2 °F 55.4 °F 68% 30.03 in 10.0 mi NE 4.6 mph - N/A   Scattered Clouds
10:35 PM 66.2 °F 55.4 °F 68% 30.03 in 10.0 mi NE 4.6 mph - N/A   Clear
10:55 PM 66.2 °F 55.4 °F 68% 30.04 in 10.0 mi East 6.9 mph - N/A   Clear
11:15 PM 66.2 °F 55.4 °F 68% 30.04 in 10.0 mi Calm Calm - N/A   Clear
11:35 PM 66.2 °F 55.4 °F 68% 30.05 in 10.0 mi Calm Calm - N/A   Clear
11:55 PM 64.4 °F 57.2 °F 77% 30.05 in 10.0 mi NE 4.6 mph - N/A   Clear